Year,Month,Day,Hour,Minute,Value (Times are PST for windgust in km/hr)
2022,05,18,00,00,1.60
2022,05,18,00,03,1.60
2022,05,18,00,08,3.20
2022,05,18,00,09,3.20
2022,05,18,00,10,3.20
2022,05,18,00,11,3.20
2022,05,18,00,12,4.80
2022,05,18,00,13,3.20
2022,05,18,00,14,3.20
2022,05,18,00,15,6.40
2022,05,18,01,13,1.60
2022,05,18,01,15,1.60
2022,05,18,01,16,3.20
2022,05,18,01,17,3.20
2022,05,18,01,18,3.20
2022,05,18,01,19,4.80
2022,05,18,01,20,1.60
2022,05,18,01,25,1.60
2022,05,18,01,26,4.80
2022,05,18,01,27,6.40
2022,05,18,01,28,4.80
2022,05,18,01,29,4.80
2022,05,18,01,31,1.60
2022,05,18,01,33,1.60
2022,05,18,01,34,3.20
2022,05,18,01,35,4.80
2022,05,18,01,36,3.20
2022,05,18,01,37,3.20
2022,05,18,01,38,6.40
2022,05,18,01,39,4.80
2022,05,18,01,40,9.60
2022,05,18,01,41,4.80
2022,05,18,01,42,4.80
2022,05,18,01,43,4.80
2022,05,18,01,44,4.80
2022,05,18,01,45,4.80
2022,05,18,02,01,3.20
2022,05,18,02,02,4.80
2022,05,18,02,19,1.60
2022,05,18,02,20,4.80
2022,05,18,02,25,1.60
2022,05,18,02,26,6.40
2022,05,18,02,36,1.60
2022,05,18,02,40,4.80
2022,05,18,02,41,3.20
2022,05,18,02,51,1.60
2022,05,18,02,52,3.20
2022,05,18,02,53,6.40
2022,05,18,02,54,4.80
2022,05,18,02,55,4.80
2022,05,18,02,56,6.40
2022,05,18,02,57,6.40
2022,05,18,02,58,1.60
2022,05,18,02,59,4.80
2022,05,18,03,00,3.20
2022,05,18,03,01,4.80
2022,05,18,03,02,6.40
2022,05,18,03,03,1.60
2022,05,18,03,04,4.80
2022,05,18,03,05,4.80
2022,05,18,03,06,1.60
2022,05,18,03,07,4.80
2022,05,18,03,08,4.80
2022,05,18,03,09,4.80
2022,05,18,03,10,1.60
2022,05,18,03,21,3.20
2022,05,18,03,22,3.20
2022,05,18,03,30,3.20
2022,05,18,03,31,4.80
2022,05,18,03,32,4.80
2022,05,18,03,33,1.60
2022,05,18,03,36,1.60
2022,05,18,03,37,4.80
2022,05,18,03,42,1.60
2022,05,18,03,43,4.80
2022,05,18,03,44,4.80
2022,05,18,03,45,4.80
2022,05,18,03,46,4.80
2022,05,18,03,47,3.20
2022,05,18,03,48,1.60
2022,05,18,03,52,3.20
2022,05,18,03,53,1.60
2022,05,18,03,54,1.60
2022,05,18,03,55,4.80
2022,05,18,03,56,4.80
2022,05,18,03,57,3.20
2022,05,18,03,58,4.80
2022,05,18,03,59,3.20
2022,05,18,04,01,4.80
2022,05,18,04,02,4.80
2022,05,18,04,08,4.80
2022,05,18,04,22,1.60
2022,05,18,04,24,4.80
2022,05,18,04,25,1.60
2022,05,18,04,26,1.60
2022,05,18,04,29,4.80
2022,05,18,04,30,3.20
2022,05,18,04,57,4.80
2022,05,18,04,58,8.10
2022,05,18,04,59,3.20
2022,05,18,05,00,8.10
2022,05,18,05,01,3.20
2022,05,18,05,02,1.60
2022,05,18,05,03,6.40
2022,05,18,05,04,8.10
2022,05,18,05,05,9.60
2022,05,18,05,06,6.40
2022,05,18,05,07,3.20
2022,05,18,05,08,3.20
2022,05,18,05,09,6.40
2022,05,18,05,10,3.20
2022,05,18,05,11,6.40
2022,05,18,05,12,9.60
2022,05,18,05,13,3.20
2022,05,18,05,14,8.10
2022,05,18,05,15,14.50
2022,05,18,05,16,12.90
2022,05,18,05,17,14.50
2022,05,18,05,18,12.90
2022,05,18,05,19,24.20
2022,05,18,05,20,12.90
2022,05,18,05,21,9.60
2022,05,18,05,22,12.90
2022,05,18,05,23,9.60
2022,05,18,05,24,14.50
2022,05,18,05,25,16.10
2022,05,18,05,26,25.70
2022,05,18,05,27,24.20
2022,05,18,05,28,24.20
2022,05,18,05,29,20.90
2022,05,18,05,30,33.80
2022,05,18,05,31,20.90
2022,05,18,05,32,4.80
2022,05,18,05,33,16.10
2022,05,18,05,34,25.70
2022,05,18,05,35,14.50
2022,05,18,05,36,22.50
2022,05,18,05,37,20.90
2022,05,18,05,38,22.50
2022,05,18,05,39,14.50
2022,05,18,05,40,16.10
2022,05,18,05,41,16.10
2022,05,18,05,42,14.50
2022,05,18,05,43,17.70
2022,05,18,05,44,9.60
2022,05,18,05,45,12.90
2022,05,18,05,46,19.30
2022,05,18,05,47,22.50
2022,05,18,05,48,12.90
2022,05,18,05,49,16.10
2022,05,18,05,50,25.70
2022,05,18,05,51,9.60
2022,05,18,05,52,8.10
2022,05,18,05,53,4.80
2022,05,18,05,54,12.90
2022,05,18,05,55,19.30
2022,05,18,05,56,17.70
2022,05,18,05,57,17.70
2022,05,18,05,58,16.10
2022,05,18,05,59,20.90
2022,05,18,06,00,12.90
2022,05,18,06,01,8.10
2022,05,18,06,02,8.10
2022,05,18,06,03,22.50
2022,05,18,06,04,17.70
2022,05,18,06,05,12.90
2022,05,18,06,06,9.60
2022,05,18,06,07,9.60
2022,05,18,06,08,30.60
2022,05,18,06,09,19.30
2022,05,18,06,10,16.10
2022,05,18,06,11,17.70
2022,05,18,06,12,17.70
2022,05,18,06,13,6.40
2022,05,18,06,14,9.60
2022,05,18,06,15,6.40
2022,05,18,06,16,12.90
2022,05,18,06,17,4.80
2022,05,18,06,18,6.40
2022,05,18,06,19,14.50
2022,05,18,06,20,16.10
2022,05,18,06,21,12.90
2022,05,18,06,22,4.80
2022,05,18,06,23,3.20
2022,05,18,06,24,3.20
2022,05,18,06,25,12.90
2022,05,18,06,26,12.90
2022,05,18,06,27,14.50
2022,05,18,06,28,12.90
2022,05,18,06,29,8.10
2022,05,18,06,30,16.10
2022,05,18,06,31,4.80
2022,05,18,06,32,3.20
2022,05,18,06,33,12.90
2022,05,18,06,34,3.20
2022,05,18,06,35,9.60
2022,05,18,06,36,8.10
2022,05,18,06,37,4.80
2022,05,18,06,38,3.20
2022,05,18,06,39,1.60
2022,05,18,06,40,4.80
2022,05,18,06,41,3.20
2022,05,18,06,42,8.10
2022,05,18,06,43,8.10
2022,05,18,06,44,4.80
2022,05,18,06,45,4.80
2022,05,18,06,46,3.20
2022,05,18,06,47,3.20
2022,05,18,06,48,6.40
2022,05,18,06,49,4.80
2022,05,18,06,50,4.80
2022,05,18,06,51,1.60
2022,05,18,06,52,1.60
2022,05,18,06,53,1.60
2022,05,18,06,54,3.20
2022,05,18,06,58,3.20
2022,05,18,06,59,4.80
2022,05,18,07,00,1.60
2022,05,18,07,03,3.20
2022,05,18,07,04,1.60
2022,05,18,07,05,3.20
2022,05,18,07,06,6.40
2022,05,18,07,08,3.20
2022,05,18,07,09,4.80
2022,05,18,07,10,3.20
2022,05,18,07,11,3.20
2022,05,18,07,12,6.40
2022,05,18,07,13,1.60
2022,05,18,07,14,3.20
2022,05,18,07,15,3.20
2022,05,18,07,16,3.20
2022,05,18,07,17,8.10
2022,05,18,07,18,8.10
2022,05,18,07,19,3.20
2022,05,18,07,20,4.80
2022,05,18,07,21,8.10
2022,05,18,07,22,3.20
2022,05,18,07,23,4.80
2022,05,18,07,24,3.20
2022,05,18,07,25,3.20
2022,05,18,07,26,4.80
2022,05,18,07,27,3.20
2022,05,18,07,28,3.20
2022,05,18,07,29,1.60
2022,05,18,07,30,3.20
2022,05,18,07,33,1.60
2022,05,18,07,34,6.40
2022,05,18,07,35,1.60
2022,05,18,07,36,4.80
2022,05,18,07,37,6.40
2022,05,18,07,38,6.40
2022,05,18,07,39,8.10
2022,05,18,07,40,4.80
2022,05,18,07,41,6.40
2022,05,18,07,42,8.10
2022,05,18,07,43,9.60
2022,05,18,07,44,3.20
2022,05,18,07,45,4.80
2022,05,18,07,46,4.80
2022,05,18,07,47,6.40
2022,05,18,07,48,6.40
2022,05,18,07,49,8.10
2022,05,18,07,50,9.60
2022,05,18,07,51,6.40
2022,05,18,07,52,4.80
2022,05,18,07,53,9.60
2022,05,18,07,54,9.60
2022,05,18,07,55,9.60
2022,05,18,07,56,6.40
2022,05,18,07,57,8.10
2022,05,18,07,58,19.30
2022,05,18,07,59,9.60
2022,05,18,08,00,4.80
2022,05,18,08,01,9.60
2022,05,18,08,02,16.10
2022,05,18,08,03,8.10
2022,05,18,08,04,8.10
2022,05,18,08,05,6.40
2022,05,18,08,06,3.20
2022,05,18,08,07,17.70
2022,05,18,08,08,16.10
2022,05,18,08,09,12.90
2022,05,18,08,10,9.60
2022,05,18,08,11,6.40
2022,05,18,08,12,16.10
2022,05,18,08,13,17.70
2022,05,18,08,14,12.90
2022,05,18,08,16,1.60
2022,05,18,08,17,14.50
2022,05,18,08,18,9.60
2022,05,18,08,19,8.10
2022,05,18,08,20,12.90
2022,05,18,08,21,4.80
2022,05,18,08,22,6.40
2022,05,18,08,23,14.50
2022,05,18,08,24,16.10
2022,05,18,08,25,8.10
2022,05,18,08,26,9.60
2022,05,18,08,27,14.50
2022,05,18,08,28,16.10
2022,05,18,08,29,17.70
2022,05,18,08,30,17.70
2022,05,18,08,31,8.10
2022,05,18,08,32,12.90
2022,05,18,08,33,4.80
2022,05,18,08,34,4.80
2022,05,18,08,35,17.70
2022,05,18,08,36,14.50
2022,05,18,08,37,16.10
2022,05,18,08,38,12.90
2022,05,18,08,39,16.10
2022,05,18,08,40,22.50
2022,05,18,08,41,8.10
2022,05,18,08,42,12.90
2022,05,18,08,43,19.30
2022,05,18,08,44,19.30
2022,05,18,08,45,19.30
2022,05,18,08,46,16.10
2022,05,18,08,47,8.10
2022,05,18,08,48,17.70
2022,05,18,08,49,19.30
2022,05,18,08,50,19.30
2022,05,18,08,51,14.50
2022,05,18,08,52,12.90
2022,05,18,08,53,12.90
2022,05,18,08,54,9.60
2022,05,18,08,55,8.10
2022,05,18,08,56,9.60
2022,05,18,08,57,6.40
2022,05,18,08,58,9.60
2022,05,18,08,59,14.50
2022,05,18,09,00,14.50
2022,05,18,09,01,17.70
2022,05,18,09,02,9.60
2022,05,18,09,03,22.50
2022,05,18,09,04,19.30
2022,05,18,09,05,9.60
2022,05,18,09,06,17.70
2022,05,18,09,07,27.40
2022,05,18,09,08,33.80
2022,05,18,09,09,30.60
2022,05,18,09,10,33.80
2022,05,18,09,11,20.90
2022,05,18,09,12,12.90
2022,05,18,09,13,19.30
2022,05,18,09,14,25.70
2022,05,18,09,15,38.60
2022,05,18,09,16,22.50
2022,05,18,09,17,25.70
2022,05,18,09,18,17.70
2022,05,18,09,19,33.80
2022,05,18,09,20,17.70
2022,05,18,09,21,14.50
2022,05,18,09,22,25.70
2022,05,18,09,23,24.20
2022,05,18,09,24,20.90
2022,05,18,09,25,40.20
2022,05,18,09,26,33.80
2022,05,18,09,27,24.20
2022,05,18,09,28,27.40
2022,05,18,09,29,24.20
2022,05,18,09,30,32.20
2022,05,18,09,31,33.80
2022,05,18,09,32,29.00
2022,05,18,09,33,35.40
2022,05,18,09,34,22.50
2022,05,18,09,35,20.90
2022,05,18,09,36,29.00
2022,05,18,09,37,24.20
2022,05,18,09,38,17.70
2022,05,18,09,39,19.30
2022,05,18,09,40,37.00
2022,05,18,09,41,40.20
2022,05,18,09,42,20.90
2022,05,18,09,43,45.10
2022,05,18,09,44,25.70
2022,05,18,09,45,33.80
2022,05,18,09,46,29.00
2022,05,18,09,47,22.50
2022,05,18,09,48,38.60
2022,05,18,09,49,33.80
2022,05,18,09,50,17.70
2022,05,18,09,51,33.80
2022,05,18,09,52,27.40
2022,05,18,09,53,29.00
2022,05,18,09,54,46.70
2022,05,18,09,55,19.30
2022,05,18,09,56,29.00
2022,05,18,09,57,25.70
2022,05,18,09,58,33.80
2022,05,18,09,59,32.20
2022,05,18,10,00,29.00
2022,05,18,10,01,30.60
2022,05,18,10,02,22.50
2022,05,18,10,03,19.30
2022,05,18,10,04,25.70
2022,05,18,10,05,16.10
2022,05,18,10,06,19.30
2022,05,18,10,07,27.40
2022,05,18,10,08,40.20
2022,05,18,10,09,43.50
2022,05,18,10,10,27.40
2022,05,18,10,11,20.90
2022,05,18,10,12,29.00
2022,05,18,10,13,30.60
2022,05,18,10,14,35.40
2022,05,18,10,15,43.50
2022,05,18,10,16,40.20
2022,05,18,10,17,41.80
2022,05,18,10,18,57.90
2022,05,18,10,19,24.20
2022,05,18,10,20,30.60
2022,05,18,10,21,19.30
2022,05,18,10,22,27.40
2022,05,18,10,23,33.80
2022,05,18,10,24,30.60
2022,05,18,10,25,25.70
2022,05,18,10,26,19.30
2022,05,18,10,27,38.60
2022,05,18,10,28,46.70
2022,05,18,10,29,22.50
2022,05,18,10,30,20.90
2022,05,18,10,31,16.10
2022,05,18,10,32,12.90
2022,05,18,10,33,8.10
2022,05,18,10,34,17.70
2022,05,18,10,35,17.70
2022,05,18,10,36,19.30
2022,05,18,10,37,29.00
2022,05,18,10,38,19.30
2022,05,18,10,39,19.30
2022,05,18,10,40,40.20
2022,05,18,10,41,20.90
2022,05,18,10,42,16.10
2022,05,18,10,43,14.50
2022,05,18,10,44,14.50
2022,05,18,10,45,22.50
2022,05,18,10,46,14.50
2022,05,18,10,47,14.50
2022,05,18,10,48,12.90
2022,05,18,10,49,12.90
2022,05,18,10,50,9.60
2022,05,18,10,51,8.10
2022,05,18,10,52,12.90
2022,05,18,10,53,14.50
2022,05,18,10,54,8.10
2022,05,18,10,55,9.60
2022,05,18,10,56,8.10
2022,05,18,10,57,6.40
2022,05,18,10,58,9.60
2022,05,18,10,59,12.90
2022,05,18,11,00,12.90
2022,05,18,11,01,9.60
2022,05,18,11,02,12.90
2022,05,18,11,03,24.20
2022,05,18,11,04,17.70
2022,05,18,11,05,16.10
2022,05,18,11,06,24.20
2022,05,18,11,07,16.10
2022,05,18,11,08,17.70
2022,05,18,11,09,25.70
2022,05,18,11,10,16.10
2022,05,18,11,11,9.60
2022,05,18,11,12,14.50
2022,05,18,11,13,17.70
2022,05,18,11,14,19.30
2022,05,18,11,15,16.10
2022,05,18,11,16,20.90
2022,05,18,11,17,35.40
2022,05,18,11,18,27.40
2022,05,18,11,19,14.50
2022,05,18,11,20,24.20
2022,05,18,11,21,32.20
2022,05,18,11,22,29.00
2022,05,18,11,23,22.50
2022,05,18,11,24,20.90
2022,05,18,11,25,19.30
2022,05,18,11,26,16.10
2022,05,18,11,27,29.00
2022,05,18,11,28,16.10
2022,05,18,11,29,29.00
2022,05,18,11,30,22.50
2022,05,18,11,31,19.30
2022,05,18,11,32,33.80
2022,05,18,11,33,37.00
2022,05,18,11,34,35.40
2022,05,18,11,35,29.00
2022,05,18,11,36,24.20
2022,05,18,11,37,32.20
2022,05,18,11,38,19.30
2022,05,18,11,39,16.10
2022,05,18,11,40,22.50
2022,05,18,11,41,19.30
2022,05,18,11,42,32.20
2022,05,18,11,43,33.80
2022,05,18,11,44,27.40
2022,05,18,11,45,38.60
2022,05,18,11,46,22.50
